User: anonymous   Login
Location: Kailua
(21.4020°N, 157.7390°W)
Time: 11:48:19
(UTC-10:00)
Language:

Cosmos 2297 Rocket - Orbit

View from above orbital plane
View from above orbital plane
View from above satellite
View from above satellite

Ground track
Ground track

The orbit data is extracted from the following two-line orbital elements,

1 23405U 94077B   16338.20350462  .00000283  00000-0  17046-3 0  9998
2 23405  70.9839 267.4482 0004868 263.5296  96.5273 14.15188977137783
Epoch (UTC): 03 December 2016 04:53:02
Eccentricity: 0.0004868
inclination: 70.9839°
perigee height: 838 km
apogee height: 845 km
right ascension of ascending node: 267.4482°
argument of perigee: 263.5296°
revolutions per day: 14.15188977
mean anomaly at epoch: 96.5273°
orbit number at epoch: 13778

The dashed part of the orbit path shows where the satellite is in the earth's shadow,  

DLR